Other Public Products
Issued by NWS Charleston, SC

Current Version | Previous Version | Graphics & Text | Print | Product List | Glossary On
Versions: 1 2 3 4 5 6 7 8 9 10 11 12 13 14 15 16 17 18 19 20 21 22 23 24 25 26 27 28 29 30 31 32 33 34 35 36 37 38 39 40 41 42 43 44 45 46 47 48 49 50
506
FPUS82 KCHS 241327
OPUCHS

TEST...KCHS/KSAV Gateway Observations...TEST
National Weather Service Charleston SC
900 AM EDT SAT JUN 24 2017

NOTE: "fair" indicates few or no clouds below 12,000 feet with no
significant weather and/or obstructions to visibility.

SCZ050-WAZ558-NCZ071-TXZ119-213-PAZ071-DCZ001-FLZ074-172-MI076-
NYZ176-178-MAZ016-IL014-TNZ027-NJZ106-GAZ044-MD014-241400-

...Gateway Observations for Charleston International...

CITY           SKY/WX    TMP DP  RH WIND       PRES   REMARKS
Chas Airport   MOSUNNY   84  73  69 W9        30.00R HX  90
Seattle        CLEAR     62  51  67 NE6       30.15S
Charlotte      PTSUNNY   77  70  79 SW10      29.98R
Dallas DFW     TSTM      71  70  96 N9        30.12R FOG
Dallas Love    TSTM      71  70  96 N8        30.12R FOG
Philladelphia  MOSUNNY   76  69  79 W13       29.69R
Wash National  MOSUNNY   80  67  64 W13G21    29.79R
Baltimore      MOSUNNY   77  68  73 W17G28    29.75R
Miami          PTSUNNY   86  74  67 SE12      30.06R HX  94
Detroit        MOSUNNY   68  57  68 W9        29.85R
Newark         CLOUDY    71  71 100 W9        29.61R
Laguardia      LGT RAIN  72  71  97 CALM      29.60R
J F K          LGT RAIN  72  72 100 NW10      29.60R
Boston Logan   CLOUDY    75  71  87 S13       29.55R
Ft. Lauderdale MOSUNNY   84  74  71 SE12      30.05R HX  91
Chicago O`Hare MOSUNNY   66  55  67 NW13      29.92R
Chicago Midway MOSUNNY   66  56  70 NW12      29.93R
Houston Bush   TSTM      78  74  87 N6        29.99R
Houston Hobby  PTSUNNY   82  78  88 W3        29.97S HX  91
Nashville      PTSUNNY   74  66  76 NW8       30.03R
Atlanta        LGT RAIN  74  72  93 SW9       30.03R FOG

$$

GAZ044-118-TXZ119-213-NCZ071-DCZ001-MDZ014-506-PAZ021-071-NJZ106-
NYZ176-178-MAZ106-OHZ011-021-055-MIZ076-KYZ091-ILZ014-INZ047-
MNZ060-ONZ431-241400-

...Gateway Observations for Savannah International...

CITY           SKY/WX    TMP DP  RH WIND       PRES   REMARKS
Savannah Arpt  MOSUNNY   82  72  71 SW9       30.04R
Atlanta        LGT RAIN  74  72  93 SW9       30.03R FOG
Charlotte      PTSUNNY   77  70  79 SW10      29.98R
Dallas DFW     TSTM      71  70  96 N9        30.12R FOG
Houston Bush   TSTM      78  74  87 N6        29.99R
Wash National  MOSUNNY   80  67  64 W13G21    29.79R
Wash Dulles    PTSUNNY   76  65  68 W10       29.81R
Baltimore      MOSUNNY   77  68  73 W17G28    29.75R
Philadelphia   MOSUNNY   76  69  79 W13       29.69R
Newark         CLOUDY    71  71 100 W9        29.61R
Laguardia      LGT RAIN  72  71  97 CALM      29.60R
J F K          LGT RAIN  72  72 100 NW10      29.60R
Boston         CLOUDY    75  71  87 S13       29.55R
Pittsburg      MOSUNNY   68  61  78 W9        29.87R
Akron          MOSUNNY   68  56  65 W8        29.87R
Cleveland      PTSUNNY   68  58  70 SW9       29.87R
Cincinnati     MOSUNNY   67  61  81 NW8       29.97R
Columbus       SUNNY     68  63  84 W9        29.93R
Detroit        MOSUNNY   68  57  68 W9        29.85R
Chicago O`Hare MOSUNNY   66  55  67 NW13      29.92R
Minneapolis    SUNNY     58  43  57 NW12      30.00S
Indianapolis   MOSUNNY   67  58  72 NW8       29.98R
Toronto Canada MOSUNNY   68  48  49 NW15      29.73R

$$




USA.gov is the U.S. government's official web portal to all federal, state and local government web resources and services.